GW3985 Weather Reports


time (UTC)temp
F
wind
direction
speed
knots
gust
knots
rain 1hr
in
rain 24hr
in
rain mn
in
humidity
%
barometer
mb
20260505153036 36 99 0.0 1.7 0.01 0.27 0.08 94 1017.9
20260505152016 36 100 0.0 0.9 0.01 0.27 0.08 94 1018.0
20260505151017 36 116 0.0 1.7 0.01 0.27 0.08 94 1017.9
20260505125017 38 194 0.9 2.6 0.02 0.24 0.05 92 1016.3
20260505124037 38 245 0.0 2.6 0.03 0.24 0.05 92 1016.0
20260505123015 40 82 0.0 2.6 0.02 0.23 0.04 92 1015.7
20260505122015 40 149 0.9 2.6 0.02 0.22 0.03 92 1015.8
20260505121015 41 22 0.0 1.7 0.03 0.22 0.03 93 1015.6
20260505120036 42 41 0.0 0.9 0.02 0.21 0.02 93 1015.6
20260505115016 42 264 0.0 0.9 0.02 0.21 0.02 93 1015.5
20260505114016 42 340 0.0 0.9 0.02 0.20 0.02 92 1015.5
20260505113017 42 75 0.0 0.9 0.02 0.20 0.02 92 1015.4
20260505112015 42 265 0.0 0.9 0.01 0.20 0.01 92 1015.5
20260505111015 42 258 0.0 0.9 0.00 0.19 0.00 91 1015.3
20260505102117 44 276 0.0 0.9 0.00 0.19 0.00 92 1014.7
20260505101015 44 260 0.0 0.9 0.00 0.19 0.00 92 1014.5
20260505100015 44 252 0.0 0.9 0.00 0.19 0.00 93 1014.4
20260505095016 44 125 0.0 0.9 0.00 0.19 0.00 93 1014.3
20260505094016 44 0.0 0.0 0.00 0.19 0.00 92 1014.5
20260505093017 44 0.0 0.0 0.00 0.19 0.00 92 1014.6
20260505092017 44 0.0 0.0 0.00 0.19 0.00 91 1014.7
20260505091037 45 0.0 0.0 0.00 0.19 0.00 91 1014.6
20260505090015 45 0.0 0.0 0.00 0.19 0.00 91 1014.4
20260505085015 45 125 0.0 0.9 0.00 0.19 0.00 91 1014.5
20260505084016 45 0.0 0.0 0.00 0.19 0.00 90 1014.6
20260505083016 45 125 0.0 0.9 0.00 0.19 0.00 90 1014.7
20260505082016 45 125 0.9 2.6 0.00 0.19 0.00 91 1014.9
20260505081017 45 136 0.0 0.9 0.00 0.19 0.00 92 1015.0
20260505080017 45 0.0 0.0 0.00 0.19 0.00 92 1015.1
20260505075015 45 0.0 0.0 0.00 0.19 0.00 91 1015.3
20260505074015 45 132 0.0 0.9 0.00 0.19 0.00 91 1015.4
20260505073016 46 132 0.0 0.9 0.00 0.19 0.00 92 1015.5
20260505072016 46 141 0.0 1.7 0.00 0.19 0.00 92 1015.4
20260505071016 46 140 0.0 1.7 0.00 0.19 0.00 93 1015.7
20260505070017 46 109 0.0 0.9 0.00 0.19 0.00 93 1015.8
20260505065034 46 109 0.0 0.9 0.00 0.19 0.00 93 1015.9
20260505064015 46 109 0.0 0.9 0.00 0.19 0.00 93 1015.9
20260505063016 46 79 0.0 0.9 0.01 0.19 0.00 93 1015.9
20260505062036 46 0.0 0.0 0.01 0.19 0.00 93 1015.9
20260505061036 46 0.0 0.0 0.02 0.19 0.00 93 1016.0
20260505060037 46 0.0 0.0 0.03 0.19 0.00 92 1016.0
20260505055017 46 79 0.0 0.9 0.06 0.19 0.19 92 1015.9
20260505054015 46 0.0 0.0 0.13 0.19 0.19 92 1015.8
20260505053055 46 0.0 0.0 0.13 0.18 0.18 92 1016.0
20260505052015 46 0.0 0.0 0.14 0.18 0.18 91 1016.1
20260505051016 46 78 0.0 0.9 0.14 0.17 0.17 91 1016.4
20260505041015 49 121 0.0 0.9 0.03 0.03 0.03 81 1016.2
20260505040016 50 78 0.0 0.9 0.02 0.02 0.02 77 1016.0
20260505035016 52 80 0.0 1.7 0.01 0.01 0.01 70 1016.0
20260505034016 53 0.0 0.0 0.00 0.00 0.00 62 1015.7
20260505033017 53 0.0 0.0 0.00 0.00 0.00 60 1015.5
20260505032035 53 0.0 0.0 0.00 0.00 0.00 60 1015.2
20260505031015 53 0.0 0.0 0.00 0.00 0.00 60 1015.1
20260505030016 53 0.0 0.0 0.00 0.00 0.00 60 1014.9
20260505025016 53 0.0 0.0 0.00 0.00 0.00 60 1014.9
20260505024016 53 0.0 0.0 0.00 0.00 0.00 60 1014.8
20260505023037 53 0.0 0.0 0.00 0.00 0.00 60 1014.6
20260505022017 53 277 0.0 0.9 0.00 0.00 0.00 60 1014.8
20260505021015 53 3 0.0 0.9 0.00 0.00 0.00 59 1014.7
20260505020015 54 65 0.0 2.6 0.00 0.00 0.00 55 1014.7
20260505015015 55 46 0.0 1.7 0.00 0.00 0.00 53 1014.3
20260505014036 55 82 0.0 0.9 0.00 0.00 0.00 53 1013.7
20260505013016 56 114 0.0 0.9 0.00 0.00 0.00 52 1014.1
20260505012017 57 53 0.0 1.7 0.00 0.00 0.00 50 1014.1
20260505011017 58 66 0.9 5.2 0.00 0.00 0.00 47 1013.8
20260505010015 58 326 0.0 1.7 0.00 0.00 0.00 45 1013.7
20260505005015 59 273 0.0 1.7 0.00 0.00 0.00 44 1013.5
20260505004016 59 46 0.9 2.6 0.00 0.00 0.00 42 1013.5
20260505003036 60 64 0.0 3.5 0.00 0.00 0.00 41 1013.4
20260505002017 61 331 0.9 2.6 0.00 0.00 0.00 39 1013.2
20260505001017 61 270 0.0 1.7 0.00 0.00 0.00 37 1013.1
20260505000014 62 321 0.9 3.5 0.00 0.00 0.00 36 1013.0
20260504235015 62 298 0.9 3.5 0.00 0.00 0.00 36 1012.9
20260504234035 62 284 0.0 1.7 0.00 0.00 0.00 36 1013.2
20260504233016 63 45 0.9 4.3 0.00 0.00 0.00 36 1013.0
20260504232016 63 299 0.0 2.6 0.00 0.00 0.00 36 1013.0
20260504231017 63 235 1.7 6.1 0.00 0.00 0.00 36 1012.5
20260504230057 64 284 1.7 7.0 0.00 0.00 0.00 34 1012.2
20260504225015 64 346 0.9 3.5 0.00 0.00 0.00 33 1012.1
20260504224015 65 331 2.6 7.0 0.00 0.00 0.00 32 1012.1
20260504223016 67 4 1.7 7.0 0.00 0.00 0.00 28 1011.9
20260504222016 68 13 0.9 3.5 0.00 0.00 0.00 26 1011.9
20260504221016 69 330 0.9 6.1 0.00 0.00 0.00 26 1011.9
20260504220017 70 273 0.0 0.9 0.00 0.00 0.00 26 1011.6
20260504215017 71 315 0.0 0.9 0.00 0.00 0.00 25 1011.6
20260504214015 71 50 0.9 3.5 0.00 0.00 0.00 25 1011.7
20260504213015 73 57 0.9 2.6 0.00 0.00 0.00 24 1011.8
20260504211516 73 53 0.9 3.5 0.00 0.00 0.00 24 1012.0
20260504210516 73 92 0.9 2.6 0.00 0.00 0.00 25 1012.1
20260504205517 74 97 0.9 7.0 0.00 0.00 0.00 24 1012.1
20260504204517 74 68 0.9 2.6 0.00 0.00 0.00 25 1012.2
20260504203515 73 81 0.9 3.5 0.00 0.00 0.00 26 1012.3
20260504202515 72 22 0.9 4.3 0.00 0.00 0.00 25 1012.4
20260504201535 71 344 0.9 2.6 0.00 0.00 0.00 25 1012.4
20260504200516 70 314 0.9 3.5 0.00 0.00 0.00 25 1012.5
20260504195517 71 57 0.9 3.5 0.00 0.00 0.00 26 1012.5
20260504194517 70 289 1.7 7.0 0.00 0.00 0.00 26 1012.4
20260504193537 69 285 1.7 7.0 0.00 0.00 0.00 26 1012.5
20260504192535 68 39 0.9 4.3 0.00 0.00 0.00 26 1012.5
20260504191515 68 334 0.9 6.1 0.00 0.00 0.00 26 1012.5
20260504190515 69 347 1.7 6.1 0.00 0.00 0.00 25 1012.5
20260504185516 69 67 0.9 1.7 0.00 0.00 0.00 24 1012.5
20260504184536 70 100 0.0 1.7 0.00 0.00 0.00 23 1012.5
20260504183517 71 46 0.9 5.2 0.00 0.00 0.00 23 1012.5
20260504182517 72 2 0.0 0.9 0.00 0.00 0.00 23 1012.6
20260504181515 73 26 0.9 3.5 0.00 0.00 0.00 21 1012.7
20260504180515 74 260 0.0 1.7 0.00 0.00 0.00 22 1012.7
20260504175516 74 61 0.9 4.3 0.00 0.00 0.00 22 1012.8
20260504174516 73 125 0.9 6.1 0.00 0.00 0.00 22 1013.0
20260504173517 73 90 0.9 1.7 0.00 0.00 0.00 22 1013.2
20260504172517 73 193 0.9 2.6 0.00 0.00 0.00 24 1013.3
20260504171535 72 251 0.0 2.6 0.00 0.00 0.00 23 1013.5
20260504170515 71 112 0.9 2.6 0.00 0.00 0.00 24 1013.6